Location: Glenbow
(51.1592°N, 114.3828°W)
Time: 21:29:18
(UTC+00:00)

Envisat - Pass Details

Date: 07 December 2021
Orbit: 764 x 766 km, 98.2° (Epoch: 26 January)

Event Time Altitude Azimuth Distance (km) Brightness Sun altitude
Rises 13:38:40 0° 9° (N) 3,248 6.2 -16.0°
Reaches altitude 10° 13:41:06 10° 2° (N) 2,317 5.3 -15.7°
Maximum altitude 13:45:49 40° 295° (WNW) 1,122 3.4 -15.0°
Drops below altitude 10° 13:50:32 10° 227° (SW) 2,301 5.2 -14.3°
Sets 13:52:56 0° 220° (SW) 3,222 6.0 -13.9°
